Flag for India Weather past 2 weeks in Dindigul, Tamil Nadu, India

Now
84 °F

Passing clouds.


Feels Like: 88 °F
Forecast: 77 / 96 °F
Wind: 12 mph from West

Location: Tiruchchirapalli

Current Time: Jul 31, 2014 at 3:06:22 AM

Latest Report: Jul 31, 2014 at 1:40 AM


Visibility: 4 mi

Pressure: 29.71 "Hg

Humidity: 62%

Dew point: 70 °F

Location of DindigulLocation

Historic Weather in Dindigul — Graph

°F

Dindigul temperature yesterday

Maximum temperature yesterday: 100 °F (at 1:40 PM)
Minimum temperature yesterday: 81 °F (at 5:40 AM)
Average temperature yesterday: 90 °F

Past Weeks' High & Low Weather Summary

 TemperatureHumidityPressure
High102 °F (Jul 26, 1:40 PM)70% (Jul 22, 3:40 AM)29.83 "Hg (Jul 22, 3:40 AM)
Low81 °F (Jul 26, 5:40 AM)29% (Jul 30, 1:40 PM)29.65 "Hg (Jul 16, 3:40 PM)
Average89 °F52%29.74 "Hg
* Reported Jul 16 1:40 AM — Jul 31 1:40 AM, Dindigul, Weather by CustomWeather, © 2014

Note: Actual official high and low records may vary slightly from our data, if they occured in-between our weather recording intervals... More about our weather records

Advertising

Dindigul weather history for previous 24 hours

 ConditionsComfort  
Time TempWeatherWind HumidityBarometerVisibility
1:40 AM
Jul 31
84 °FPassing clouds.12 mph62%29.71 "Hg4 mi
12:40 AM84 °FPassing clouds.14 mph62%29.74 "Hg4 mi
11:40 PM
Jul 30
84 °FPassing clouds.14 mph62%29.74 "Hg4 mi
10:40 PM86 °FPassing clouds.17 mph55%29.74 "Hg4 mi
9:40 PM88 °FPassing clouds.13 mph52%29.77 "Hg4 mi
8:40 PM88 °FPartly cloudy.17 mph52%29.74 "Hg4 mi
7:40 PM90 °FPassing clouds.17 mph46%29.71 "Hg4 mi
6:40 PM93 °FPassing clouds.18 mph41%29.68 "Hg4 mi
5:40 PM97 °FPassing clouds.17 mph34%29.65 "Hg5 mi
4:40 PM100 °FPassing clouds.18 mph31%29.65 "Hg5 mi
3:40 PM100 °FPassing clouds.21 mph31%29.65 "Hg5 mi
2:40 PM100 °FPassing clouds.21 mph31%29.65 "Hg5 mi
1:40 PM100 °FScattered clouds.18 mph29%29.68 "Hg4 mi
12:40 PM99 °FScattered clouds.20 mph33%29.71 "Hg4 mi
11:40 AM95 °FScattered clouds.20 mph36%29.74 "Hg4 mi
10:40 AM91 °FScattered clouds.23 mph44%29.74 "Hg4 mi
9:40 AM90 °FScattered clouds.18 mph46%29.77 "Hg4 mi
8:40 AM86 °FScattered clouds.16 mph55%29.77 "Hg4 mi
7:40 AM84 °FScattered clouds.12 mph58%29.77 "Hg4 mi
6:40 AM81 °FScattered clouds.10 mph66%29.74 "Hg4 mi
5:40 AM81 °FPassing clouds.10 mph66%29.74 "Hg4 mi
4:40 AM82 °FPassing clouds.7 mph62%29.74 "Hg4 mi
Weather by CustomWeather, © 2014

See weather overviewHow to use our weather pages